Location: Quaker Farms
(41.4276°N, 73.1557°W)
Time: 23:01:13
(UTC+00:00)

Vanguard 1 - Pass Details

Date: 20 June 2021
Orbit: 651 x 3832 km, 34.2° (Epoch: 26 July)

Event Time Altitude Azimuth Distance (km) Brightness Sun altitude
Rises 02:04:38 0° 238° (WSW) 7,860 14.8 -14.2°
Reaches altitude 10° 02:10:01 10° 235° (SW) 6,920 14.4 -14.8°
Maximum altitude 02:32:39 60° 164° (SSE) 3,654 12.6 -17.3°
Drops below altitude 10° 02:48:08 10° 89° (E) 4,979 13.4 -18.9°
Sets 02:51:16 0° 86° (E) 5,640 13.7 -19.2°
